This demonstration page uses our WeatherBlox Daily Observations layout. Learn more.

Left ArrowRight Arrow

39.12711, -84.51439

Hourly Observations for July 4, 2021

Temp ( °F °C ) Dew Point ( °F °C ) Humidity (%) Winds ( mph kmh ) Pressure ( in mb ) Visibility ( mi km ) Precip ( " mm )
12:53 am 00:53 Clear 67 19.4 55 12.8 66 66 S 6 9 29.98 1015 10 16 N/A
1:53 am 01:53 Partly Cloudy 66 18.9 56 13.3 70 70 S 6 9 29.96 1015 10 16 N/A
2:53 am 02:53 Cloudy 67 19.4 58 14.4 73 73 S 6 9 29.96 1015 10 16 N/A
3:53 am 03:53 Cloudy 68 20 58 14.4 70 70 S 5 7 29.95 1014 10 16 N/A
4:53 am 04:53 Cloudy 70 21.1 58 14.4 66 66 WSW 8 13 29.95 1014 10 16 N/A
5:53 am 05:53 Mostly Clear 68 20 58 14.4 70 70 WSW 8 13 29.95 1014 10 16 N/A
6:53 am 06:53 Mostly Cloudy 71 21.7 59 15 66 66 W 10 17 29.95 1014 10 16 N/A
7:53 am 07:53 Mostly Sunny 72 22.2 60 15.6 66 66 VRB 3 6 29.96 1014 10 16 N/A
8:53 am 08:53 Sunny 75 23.9 62 16.7 64 64 VRB 5 7 29.95 1014 10 16 N/A
9:53 am 09:53 Sunny 77 25 64 17.8 64 64 NW 5 7 29.96 1015 10 16 N/A
10:53 am 10:53 Sunny 80 26.7 66 18.9 62 62 VRB 6 9 29.95 1014 10 16 N/A
11:53 am 11:53 Sunny 82 27.8 66 18.9 58 58 VRB 5 7 29.95 1014 10 16 N/A
12:53 pm 12:53 Sunny 84 28.9 68 20 59 59 VRB 5 7 29.95 1014 10 16 N/A
1:53 pm 13:53 Mostly Sunny 86 30 69 20.6 57 57 W 6 9 29.94 1014 10 16 N/A
2:53 pm 14:53 Mostly Sunny 88 31.1 70 21.1 55 55 N 7 11 29.93 1014 10 16 N/A
3:53 pm 15:53 Mostly Cloudy 87 30.6 70 21.1 57 57 WNW 10 17 29.93 1014 10 16 N/A
4:53 pm 16:53 Mostly Cloudy 88 31.1 70 21.1 55 55 WNW 13 20 29.93 1013 10 16 N/A
5:53 pm 17:53 Mostly Cloudy 87 30.6 70 21.1 57 57 W 12 19 29.93 1014 10 16 N/A
6:53 pm 18:53 Cloudy 86 30 69 20.6 57 57 WNW 7 11 29.93 1014 10 16 N/A
7:53 pm 19:53 Mostly Cloudy 86 30 68 20 55 55 W 8 13 29.94 1014 10 16 N/A
8:53 pm 20:53 Mostly Sunny 84 28.9 67 19.4 57 57 WNW 8 13 29.95 1014 10 16 N/A
9:53 pm 21:53 Clear 83 28.3 68 20 61 61 WNW 6 9 29.96 1015 10 16 N/A
10:53 pm 22:53 Hazy 74 23.3 69 20.6 85 85 S 3 6 29.98 1015 6 10 N/A
11:53 pm 23:53 Clear with Mist and Fog 72 22.2 69 20.6 91 91 N N/A 29.99 1016 5 8 N/A

Powered by AerisWeather